Grand Marais, MN

10:05 PM CDT on July 21, 2017 (GMT -0500)
Grand Marais

Weather History for KGNA - May, 2013

Change the Weather History Date:

Thursday, May 2, 2013

  Actual Average (KCKC) Record (KCKC)
Temperature  
Mean Temperature 34 °F -  
Max Temperature 37 °F 52 °F 71 °F (1999)
Min Temperature 32 °F 32 °F 19 °F (2003)
Degree Days  
Heating Degree Days 30    
Moisture  
Dew Point 27 °F    
Average Humidity 74    
Maximum Humidity 88    
Minimum Humidity 52    
Precipitation  
Precipitation 0.05 in - - ()
Sea Level Pressure  
Sea Level Pressure 30.55 in    
Wind  
Wind Speed 6 mph (East)    
Max Wind Speed 10 mph    
Max Gust Speed 18 mph    
Averages and records for this station are not official NWS values.
T = Trace of Precipitation, MM = Missing Value Source: NWS Daily Summary

Daily Weather History Graph

Daily Weather History Graph

Search for Another Location

Airport or City:

Trip Planner

Search our weather history database for the weather conditions in past years. The results will help you decide how hot, cold, wet, or windy it might be!

Date:

Astronomy

May. 02, 2013 Rise Set
Actual Time 5:41 AM CDT 8:15 PM CDT
Civil Twilight 5:07 AM CDT 8:50 PM CDT
Nautical Twilight 4:23 AM CDT 9:34 PM CDT
Astronomical Twilight 3:32 AM CDT 10:25 PM CDT
Moon 2:01 AM CDT (5/2) 12:34 PM CDT (5/2)
Length of Visible Light 15h 43m
Length of Day
14h 33m
Waning Gibbous, 47% of the Moon is Illuminated
May 2
Waning Gibbous
May 9
New
May 17
First Quarter
May 24
Full
May 31
Last Quarter

Hourly Weather History & Observations

Time (CDT) Temp. Windchill Dew Point Humidity Pressure Visibility Wind Dir Wind Speed Gust Speed Precip Events Conditions
12:56 AM 37.0 °F 32.4 °F 24.1 °F 59% 30.50 in - Variable 5.8 mph 18.4 mph N/A   Unknown
1:56 AM 37.0 °F 31.0 °F 23.0 °F 57% 30.52 in - NNW 8.1 mph - N/A   Unknown
2:56 AM 37.0 °F 31.0 °F 23.0 °F 57% 30.51 in - North 8.1 mph 17.3 mph N/A   Unknown
3:56 AM 33.1 °F 27.7 °F 27.0 °F 78% 30.56 in - Variable 5.8 mph - 0.01 in   Unknown
4:56 AM 32.0 °F 28.7 °F 28.9 °F 88% 30.57 in - East 3.5 mph - 0.04 in   Unknown
5:56 AM 32.0 °F 28.7 °F 28.9 °F 88% 30.56 in - East 3.5 mph - N/A   Unknown
6:56 AM 33.1 °F - 28.0 °F 82% 30.56 in - Calm Calm - N/A   Unknown
7:56 AM 34.0 °F 31.0 °F 24.1 °F 67% 30.58 in - NNE 3.5 mph - N/A   Unknown
8:56 AM 34.0 °F - 25.0 °F 70% 30.58 in - Calm Calm - N/A   Unknown
9:56 AM 35.1 °F 30.1 °F 19.9 °F 54% 30.59 in - Variable 5.8 mph - N/A   Unknown
10:56 AM 36.0 °F 30.3 °F 19.9 °F 52% 30.59 in - Variable 6.9 mph - N/A   Unknown
11:56 AM 35.1 °F 30.1 °F 21.9 °F 59% 30.60 in - Variable 5.8 mph 16.1 mph N/A   Unknown
12:56 PM 34.0 °F 27.2 °F 28.0 °F 79% 30.57 in - ESE 8.1 mph - N/A   Unknown
1:56 PM 35.1 °F 29.3 °F 28.9 °F 78% 30.56 in - ESE 6.9 mph - N/A   Unknown
2:56 PM 35.1 °F 28.6 °F 28.9 °F 78% 30.55 in - East 8.1 mph - N/A   Unknown
3:56 PM 35.1 °F 32.2 °F 28.9 °F 78% 30.55 in - East 3.5 mph - N/A   Unknown
4:56 PM 35.1 °F 31.0 °F 28.0 °F 76% 30.54 in - ESE 4.6 mph - N/A   Unknown
5:56 PM 34.0 °F - 28.9 °F 82% 30.56 in - Calm Calm - N/A   Unknown
6:56 PM 34.0 °F 29.8 °F 28.0 °F 79% 30.55 in - East 4.6 mph - N/A   Unknown
7:56 PM 33.1 °F 26.9 °F 28.9 °F 85% 30.55 in - East 6.9 mph - N/A   Unknown
8:56 PM 33.1 °F 24.9 °F 28.9 °F 85% 30.54 in - East 10.4 mph - N/A   Unknown
9:56 PM 33.1 °F 26.1 °F 28.9 °F 85% 30.54 in - East 8.1 mph - N/A   Unknown
10:56 PM 33.1 °F 26.1 °F 28.9 °F 85% 30.53 in - East 8.1 mph - N/A   Unknown
11:56 PM 33.1 °F 27.7 °F 28.9 °F 85% 30.52 in - ENE 5.8 mph - N/A   Unknown